Weather History for Indian Springs, NV

Change the Weather History Date:

Sunday, September 30, 2012

  Actual Average (KDRA) Record (KDRA)
Temperature  
Mean Temperature 76 °F -  
Max Temperature 94 °F 84 °F 96 °F (2003)
Min Temperature 58 °F 54 °F 48 °F (1998)
Cooling Degree Days 10    
Growing Degree Days 26 (Base 50)    
Moisture  
Dew Point 26 °F    
Average Humidity 17    
Maximum Humidity 33    
Minimum Humidity 7    
Precipitation  
Precipitation 0.00 in - - ()
Sea Level Pressure  
Sea Level Pressure 29.99 in    
Wind  
Wind Speed 2 mph (WSW)    
Max Wind Speed 12 mph    
Max Gust Speed -    
Visibility 10 miles    
Events      
Averages and records for this station are not official NWS values.
T = Trace of Precipitation, MM = Missing Value Source: NWS Daily Summary

Daily Weather History Graph

Daily Weather History Graph

Search for Another Location

Airport:

Trip Planner

Search our weather history database for the weather conditions in past years. The results will help you decide how hot, cold, wet, or windy it might be!

Date:

Astronomy

Sep. 30, 2012 Rise Set
Actual Time 6:37 AM PDT 6:26 PM PDT
Civil Twilight 6:11 AM PDT 6:52 PM PDT
Nautical Twilight 5:41 AM PDT 7:22 PM PDT
Astronomical Twilight 5:11 AM PDT 7:52 PM PDT
Moon 6:36 PM PDT (9/30) 7:10 AM PDT (9/30)
Length of Visible Light 12h 40m
Length of Day
11h 49m
Full, 100% of the Moon is Illuminated
Sep 30
Full
Oct 8
Last Quarter
Oct 15
New
Oct 21
First Quarter
Oct 29
Full

Hourly Weather History & Observations

Time (PDT) Temp. Dew Point Humidity Pressure Visibility Wind Dir Wind Speed Gust Speed Precip Events Conditions
12:55 AM 68.5 °F 29.8 °F 24% 29.98 in 10.0 mi WSW 3.5 mph - N/A   Clear
1:55 AM 66.9 °F 28.4 °F 24% 29.99 in 10.0 mi Calm Calm - N/A   Clear
2:55 AM 63.5 °F 27.9 °F 26% 29.99 in 10.0 mi Calm Calm - N/A   Clear
3:55 AM 63.3 °F 28.9 °F 27% 29.99 in 10.0 mi Calm Calm - N/A   Clear
4:55 AM 61.0 °F 28.0 °F 29% 30.00 in 10.0 mi Calm Calm - N/A   Clear
5:55 AM 59.5 °F 27.3 °F 29% 30.01 in 10.0 mi Calm Calm - N/A   Clear
6:55 AM 58.1 °F 28.8 °F 33% 30.04 in 10.0 mi Calm Calm - N/A   Clear
7:55 AM 62.2 °F 29.1 °F 29% 30.06 in 10.0 mi Calm Calm - N/A   Clear
8:55 AM 70.0 °F 30.9 °F 24% 30.06 in 10.0 mi Calm Calm - N/A   Clear
9:55 AM 77.4 °F 29.8 °F 18% 30.06 in 10.0 mi Calm Calm - N/A   Clear
10:55 AM 83.7 °F 28.8 °F 14% 30.04 in 10.0 mi Calm Calm - N/A   Clear
11:55 AM 88.5 °F 28.2 °F 11% 30.03 in 10.0 mi WNW 3.5 mph - N/A   Clear
12:55 PM 90.5 °F 27.3 °F 10% 30.01 in 10.0 mi Calm Calm - N/A   Clear
1:55 PM 92.8 °F 20.8 °F 7% 29.98 in 10.0 mi North 11.5 mph - N/A   Clear
2:55 PM 93.7 °F 21.4 °F 7% 29.97 in 10.0 mi Variable 6.9 mph - N/A   Clear
3:55 PM 92.5 °F 20.5 °F 7% 29.96 in 10.0 mi Calm Calm - N/A   Clear
4:55 PM 92.5 °F 20.5 °F 7% 29.95 in 10.0 mi Variable 4.6 mph - N/A   Clear
5:55 PM 91.2 °F 22.6 °F 8% 29.95 in 10.0 mi SE 5.8 mph - N/A   Clear
6:55 PM 87.1 °F 23.2 °F 10% 29.95 in 10.0 mi SSW 5.8 mph - N/A   Clear
7:55 PM 81.5 °F 23.4 °F 12% 29.97 in 10.0 mi West 5.8 mph - N/A   Clear
8:55 PM 78.4 °F 22.3 °F 12% 29.97 in 10.0 mi WSW 8.1 mph - N/A   Clear
9:55 PM 74.8 °F 24.6 °F 15% 29.97 in 10.0 mi Calm Calm - N/A   Clear
10:55 PM 72.7 °F 25.9 °F 17% 29.97 in 10.0 mi WSW 6.9 mph - N/A   Clear
11:55 PM 70.2 °F 25.7 °F 19% 29.97 in 10.0 mi SSW 6.9 mph - N/A   Clear